AirNav   Advertisement
 
 1643 users online  

2AK1 Blair Lake Airport
Fairbanks (Ft Wainwright), Alaska, USA


FAA INFORMATION EFFECTIVE 14 SEPTEMBER 2017

Location

FAA Identifier: 2AK1
Lat/Long: 64-21-49.4610N / 147-21-49.5290W
64-21.824350N / 147-21.825483W
64.3637392 / -147.3637581
(estimated)
Elevation: 910 ft. / 277 m (estimated)
Variation: 28E (1985)
From city: 29 miles SE of central business district of the associated city
Time zone: UTC -8 (UTC -9 during Standard Time)
Zip code: 99714

Airport Operations

Airport use: Private use. Permission required prior to landing
Activation date: 06/1971
Control tower: no
ARTCC: ANCHORAGE CENTER
FSS: FAIRBANKS FLIGHT SERVICE STATION [907-474-0788]
Attendance: UNATNDD
Wind indicator: yes
Segmented circle: no

Nearby radio navigation aids

VOR radial/distance  VOR name  Freq  Var
FAIr126/31.0FAIRBANKS VORTAC108.6021E

 
NDB name  Hdg/Dist  Freq  Var  ID
CHENA152/28.725721ECUN -.-. ..- -.

Airport Services

Airframe service: NONE
Powerplant service: NONE
Bottled oxygen: NONE
Bulk oxygen: NONE

Runway Information

Runway 15/33

Dimensions: 1530 x 50 ft. / 466 x 15 m
Surface: turf
RUNWAY 15  RUNWAY 33
Gradient: 1.5%1.5%
Traffic pattern: leftleft
Markings: nonenone
Runway end identifier lights: nono
Obstructions: trees, 800 ft. from runway, 15:1 slope to cleartrees hill, 2500 ft. from runway, 15:1 slope to clear

Airport Ownership and Management from official FAA records

Ownership: U.S. Army
Owner: U.S. ARMY
DPTSM
FT. RICHARDSON, AK 99505
Phone 907-384-2230
Manager: OPNS OFFICER
WAAF
FT WAINWRIGHT, AK 99703
Phone 907-353-6320

Airport Operational Statistics

Aircraft operations: avg 25/month *
67% military
33% transient general aviation
* for 12-month period ending 07 July 1976

Additional Remarks

WASHED AREA NEAR PARKING AREA.
SHRUBS 3' - 8'HIGH ON BOTH SIDES OF RWY.

Instrument Procedures

There are no published instrument procedures at 2AK1.

Some nearby airports with instrument procedures:

PAEI - Eielson Air Force Base (19 nm N)
PAFB - Ladd Army Airfield (29 nm N)
PAFA - Fairbanks International Airport (30 nm NW)
PANN - Nenana Municipal Airport (46 nm W)
PABI - Allen Army Airfield (48 nm SE)
 
Loc | Ops | Rwys | IFR | FBO | Links
Com | Nav | Svcs | Stats | Notes

Crowley
 
Area around 2AK1 (Blair Lake Airport)
 
Road maps at: MapQuest Bing Google
 
Aerial photo
WARNING: Photo may not be current or correct
Aerial photo of 2AK1 (Blair Lake Airport)
Do you have a better or more recent aerial photo of Blair Lake Airport that you would like to share? If so, please send us your photo.

 
Sectional chart

 
Airport distance calculator
Flying to Blair Lake Airport? Find the distance to fly.

From to 2AK1

Sunrise and sunset
Times for 21-Sep-2017
 Local
(UTC-8)
 Zulu
(UTC)
Morning civil twilight06:4314:43
Sunrise07:3115:31
Sunset19:5403:54
Evening civil twilight20:4204:42

Current date and time
Zulu (UTC)  21-Sep-2017 19:14:09
Local (UTC-8)  21-Sep-2017 11:14:09
 
METAR
PAEI 
19nm N 
211856Z 01004KT 10SM FEW010 FEW100 BKN200 06/03 A2986 RMK AO2A SLP119 T00570029 $
PAFB 
29nm N 
211858Z 04005KT 10SM FEW100 BKN240 05/03 A2987 RMK AO2A SLP121 T00530026
PAFA 
30nm NW 
211853Z 03004KT 10SM FEW030 SCT100 BKN200 06/02 A2987 RMK AO2 SLP121 T00560022 $
TAF
PAEI 
19nm N 
211528Z 2115/2218 VRB06KT 9999 FEW022 SCT100 BKN200 QNH2990INS BECMG 2117/2118 VRB06KT 9999 SCT030 SCT100 QNH2985INS TEMPO 2120/2201 11010G20KT BECMG 2203/2204 09009KT 8000 -RA SCT010 BKN025 OVC060 620409 QNH2959INS TX10/2200Z TN03/2115Z
NOTAMs
Click for the latest NOTAMs
NOTAMs are issued by the DoD/FAA and will open in a separate window not controlled by AirNav.

 

 
 

Would you like to see your business listed on this page?

 If your business provides an interesting product or service to pilots, flight crews, aircraft, or users of the Blair Lake Airport, you should consider listing it here.  To start the listing process, click on the button below
 
Add a business
 

Other Pages about Blair Lake Airport

Update a link
 
Copyright © AirNav, LLC. All rights reserved. Privacy Policy  Contact